Regional Weather Roundup
Issued by NWS Huntsville, AL

Home | Current Version | Previous Version | Text Only | Print | Product List | Glossary On
Versions: 1 2 3 4 5 6 7 8 9 10 11 12 13 14 15 16 17 18 19 20 21 22 23 24 25 26 27 28
000
ASUS44 KHUN 161910
RWRHUN

WEATHER ROUNDUP FOR THE TENNESSEE VALLEY
NATIONAL WEATHER SERVICE HUNTSVILLE AL
100 PM CST SAT DEC 16 2017

ALZ001>004-162000-
NORTHWEST ALABAMA

CITY           SKY/WX    TMP DP  RH WIND       PRES   REMARKS
COURTLAND HCN    N/A     50 N/A N/A S3          N/A
RUSSELLVILLE     N/A     50 N/A N/A MISG        N/A
SHOALS AIRPORT SUNNY     52  28  39 SW9       30.24F
SHOALS TVA RES   N/A     52 N/A N/A MISG        N/A
$$

ALZ005>007-016-162000-
NORTH CENTRAL ALABAMA

CITY           SKY/WX    TMP DP  RH WIND       PRES   REMARKS
CULLMAN AG STN   N/A     48 N/A N/A S6          N/A
DECATUR AP     CLOUDY    50  32  50 S8        30.25F
HUNTSVILLE AP  CLOUDY    50  31  48 W3        30.24F
MERIDIANVILLE  CLOUDY    46  28  49 S5        30.24F
REDSTONE ARSN  CLOUDY    49  29  46 S8        30.23F
VINEMONT AP    FAIR      49  27  42 SW5       30.26F
$$

ALZ008>010-162000-
NORTHEAST ALABAMA

CITY           SKY/WX    TMP DP  RH WIND       PRES   REMARKS
ALBERTVILLE    CLOUDY    50  34  53 SW8       30.23F
FORT PAYNE     CLOUDY    46  23  39 CALM      30.24F
SCOTTSBORO AP  CLOUDY    48  28  46 SW8       30.26F
SCOTTSBORO HCN   N/A     46 N/A N/A MISG        N/A
VALLEY HEAD      N/A     48 N/A N/A MISG        N/A
$$

TNZ076-096-097-162000-
SOUTHEASTERN MIDDLE TENNESSEE

CITY           SKY/WX    TMP DP  RH WIND       PRES   REMARKS
TULLAHOMA      SUNNY     48  28  46 S9        30.21F
WINCHESTER     SUNNY     48  28  46 SW5       30.23F
$$

...SURROUNDING SITES...

CITY           SKY/WX    TMP DP  RH WIND       PRES   REMARKS
ATLANTA        CLOUDY    51  28  41 NW6       30.24F
ANNISTON       CLOUDY    52  26  36 VRB3      30.26F
BIRMINGHAM     CLOUDY    51  24  34 W3        30.28F
CHATTANOOGA    PTSUNNY   48  27  44 S5        30.25F
CORINTH        FAIR      52  30  43 S8G15     30.20F
DALTON         SUNNY     46  30  53 CALM      30.28F
GADSDEN        CLOUDY    48  28  46 W3        30.27F
GOLDEN TRNGL   MOSUNNY   49  30  48 SE6       30.25F
HALEYVILLE     FAIR      49  29  46 VRB5      30.24F
JACKSON TN     SUNNY     54  30  40 SW8G18    30.17F
MEMPHIS        CLOUDY    54  31  41 SW12G22   30.18F
NASHVILLE      PTSUNNY   51  29  42 SW8G20    30.20F
OXFORD MS      FAIR      52  27  37 S10       30.23S
ROME           SUNNY     48  28  46 CALM      30.26F
SAVANNAH       SUNNY     52  30  43 S16       30.20F
SELMER         SUNNY     52  30  43 S8G14     30.19F
TUPELO         CLOUDY    51  28  41 SE9       30.24F
TUSCALOOSA     SUNNY     52  30  43 S6        30.27F
$$

...GULF COAST WEATHER...

CITY           SKY/WX    TMP DP  RH WIND       PRES   REMARKS
GULFPORT       PTSUNNY   55  35  47 VRB5      30.22F
PASCAGOULA     MOSUNNY   58  31  35 CALM      30.23F
MOBILE         MOSUNNY   56  29  35 VRB3      30.23F
GULF SHORES    CLEAR     56  35  44 MISG      30.23F
PENSACOLA      MOSUNNY   56  30  37 E7        30.22F
DESTIN         SUNNY     60  25  26 E6        30.23F
PANAMA CITY    SUNNY     62  31  31 SE5       30.23F
APPALACHICOLA  SUNNY     59  40  49 SE8       30.23F
$$





USA.gov is the U.S. government's official web portal to all federal, state and local government web resources and services.